Weather History for Newark, NJ

Change the Weather History Date:

Sunday, July 7, 2013

  Actual Average Record
Temperature  
Mean Temperature 87 °F 77 °F  
Max Temperature 96 °F 86 °F 103 °F (1993)
Min Temperature 77 °F 68 °F 57 °F (1940)
Degree Days  
Heating Degree Days 0 0  
Month to date heating degree days 0 0  
Since 1 June heating degree days 8 17  
Since 1 July heating degree days 0 0  
Cooling Degree Days 22 12  
Month to date cooling degree days 123 83  
Year to date cooling degree days 488 398  
Since 1 June cooling degree days 388 322  
Growing Degree Days 37 (Base 50)    
Moisture  
Dew Point 70 °F    
Average Humidity 61    
Maximum Humidity 79    
Minimum Humidity 43    
Precipitation  
Precipitation T in 0.14 in 3.29 in (1984)
Month to date precipitation 2.04 0.91  
Year to date precipitation 27.03 23.82  
Snow  
Snow 0.00 in 0.00 in 0.00 in (2002)
Month to date snowfall 0.0 0.0  
Since 1 July snowfall 0.0 0.0  
Snow Depth 0.00 in    
Sea Level Pressure  
Sea Level Pressure 30.00 in    
Wind  
Wind Speed 11 mph (SW)    
Max Wind Speed 30 mph    
Max Gust Speed 39 mph    
Visibility 10 miles    
Events Thunderstorm    
T = Trace of Precipitation, MM = Missing Value Source: NWS Daily Summary

Daily Weather History Graph

Daily Weather History Graph

Search for Another Location

Airport:

Trip Planner

Search our weather history database for the weather conditions in past years. The results will help you decide how hot, cold, wet, or windy it might be!

Date:

Astronomy

Jul. 07, 2013 Rise Set
Actual Time 5:32 AM EDT 8:30 PM EDT
Civil Twilight 4:59 AM EDT 9:02 PM EDT
Nautical Twilight 4:18 AM EDT 9:44 PM EDT
Astronomical Twilight 3:29 AM EDT 10:32 PM EDT
Moon 5:07 AM EDT (7/7) 7:51 PM EDT (7/7)
Length of Visible Light 16h 02m
Length of Day
14h 57m
Waning Crescent, 0% of the Moon is Illuminated
Jul 7
Waning Crescent
Jul 8
New
Jul 15
First Quarter
Jul 22
Full
Jul 29
Last Quarter

Hourly Weather History & Observations

Time (EDT) Temp. Heat Index Dew Point Humidity Pressure Visibility Wind Dir Wind Speed Gust Speed Precip Events Conditions
12:51 AM 84.0 °F 89.6 °F 72.0 °F 67% 30.06 in 10.0 mi WSW 12.7 mph - N/A   Partly Cloudy
1:51 AM 84.0 °F 89.6 °F 72.0 °F 67% 30.05 in 10.0 mi WSW 9.2 mph - N/A   Partly Cloudy
2:51 AM 82.0 °F 86.7 °F 72.0 °F 71% 30.05 in 10.0 mi WSW 11.5 mph - N/A   Partly Cloudy
3:51 AM 80.1 °F 83.8 °F 72.0 °F 76% 30.04 in 10.0 mi SW 4.6 mph - N/A   Partly Cloudy
4:51 AM 79.0 °F - 72.0 °F 79% 30.04 in 10.0 mi SW 9.2 mph - N/A   Scattered Clouds
5:51 AM 79.0 °F - 72.0 °F 79% 30.05 in 10.0 mi SW 10.4 mph - N/A   Mostly Cloudy
6:51 AM 81.0 °F 84.9 °F 71.1 °F 72% 30.05 in 10.0 mi SW 10.4 mph - N/A   Mostly Cloudy
7:51 AM 82.0 °F 86.3 °F 71.1 °F 69% 30.05 in 10.0 mi SW 11.5 mph - N/A   Mostly Cloudy
8:51 AM 84.0 °F 89.0 °F 71.1 °F 65% 30.05 in 10.0 mi SW 9.2 mph - N/A   Mostly Cloudy
9:51 AM 86.0 °F 92.2 °F 72.0 °F 63% 30.04 in 10.0 mi SSW 6.9 mph - N/A   Mostly Cloudy
10:51 AM 89.1 °F 95.0 °F 71.1 °F 55% 30.03 in 10.0 mi WSW 9.2 mph - N/A   Mostly Cloudy
11:51 AM 90.0 °F 96.9 °F 72.0 °F 55% 30.01 in 10.0 mi SSW 6.9 mph - N/A   Mostly Cloudy
12:51 PM 91.9 °F 98.4 °F 71.1 °F 50% 30.00 in 10.0 mi SW 8.1 mph - N/A   Mostly Cloudy
1:51 PM 93.9 °F 98.6 °F 68.0 °F 43% 29.99 in 10.0 mi WSW 12.7 mph 17.3 mph N/A   Mostly Cloudy
2:51 PM 95.0 °F 101.3 °F 70.0 °F 44% 29.96 in 10.0 mi WSW 15.0 mph 20.7 mph N/A   Mostly Cloudy
3:51 PM 93.9 °F 100.8 °F 71.1 °F 47% 29.95 in 10.0 mi WSW 13.8 mph 24.2 mph N/A   Mostly Cloudy
4:51 PM 93.9 °F 100.3 °F 70.0 °F 46% 29.93 in 10.0 mi SW 17.3 mph 21.9 mph N/A   Mostly Cloudy
5:51 PM 93.9 °F 100.3 °F 70.0 °F 46% 29.93 in 10.0 mi WSW 17.3 mph 23.0 mph N/A   Mostly Cloudy
6:51 PM 91.9 °F 97.4 °F 70.0 °F 48% 29.94 in 10.0 mi WSW 17.3 mph - N/A   Mostly Cloudy
7:51 PM 91.0 °F 95.6 °F 69.1 °F 48% 29.94 in 10.0 mi West 13.8 mph - N/A   Mostly Cloudy
8:41 PM 89.6 °F 96.2 °F 71.6 °F 55% 29.96 in 10.0 mi SW 15.0 mph - N/A Thunderstorm Thunderstorm
8:51 PM 89.1 °F 95.0 °F 71.1 °F 55% 29.98 in 10.0 mi WSW 15.0 mph - N/A Thunderstorm Thunderstorm
9:44 PM 82.4 °F 84.6 °F 66.2 °F 58% 29.96 in 10.0 mi WSW 6.9 mph - 0.00 in   Mostly Cloudy
9:51 PM 81.0 °F 83.0 °F 66.0 °F 60% 29.97 in 10.0 mi SW 8.1 mph - 0.00 in   Mostly Cloudy
10:51 PM 81.0 °F 83.3 °F 66.9 °F 62% 29.97 in 10.0 mi West 16.1 mph 19.6 mph N/A   Mostly Cloudy
11:51 PM 79.0 °F - 66.9 °F 66% 29.99 in 10.0 mi WSW 9.2 mph - N/A   Mostly Cloudy